| time (UTC) | temp F | wind direction | speed MPH | gust MPH | rain 1hr in | rain 24hr in | rain mn in | humidity % | barometer mb |
| 20260505034310 | 77 | 194 | 15.0 | 22.0 | 0.00 | 0.00 | 0.00 | 73 | 1010.7 |
| 20260505033807 | 77 | 189 | 14.0 | 20.0 | 0.00 | 0.00 | 0.00 | 74 | 1010.8 |
| 20260505032626 | 77 | 191 | 15.0 | 20.0 | 0.00 | 0.00 | 0.00 | 73 | 1010.8 |
| 20260505032111 | 77 | 176 | 14.0 | 19.0 | 0.00 | 0.00 | 0.00 | 73 | 1011.0 |
| 20260505031610 | 77 | 197 | 14.0 | 19.0 | 0.00 | 0.00 | 0.00 | 73 | 1010.9 |
| 20260505025826 | 77 | 173 | 15.0 | 20.0 | 0.00 | 0.00 | 0.00 | 73 | 1011.0 |
| 20260505024001 | 77 | 190 | 14.0 | 19.0 | 0.00 | 0.00 | 0.00 | 73 | 1010.9 |
| 20260505023503 | 77 | 2 | 14.0 | 18.0 | 0.00 | 0.00 | 0.00 | 72 | 1010.9 |
| 20260505022956 | 77 | 187 | 14.0 | 18.0 | 0.00 | 0.00 | 0.00 | 72 | 1010.9 |
| 20260505022500 | 77 | 2 | 13.0 | 19.0 | 0.00 | 0.00 | 0.00 | 72 | 1010.9 |
| 20260505021958 | 77 | 195 | 13.0 | 19.0 | 0.00 | 0.00 | 0.00 | 72 | 1011.0 |
| 20260505021453 | 77 | 184 | 13.0 | 19.0 | 0.00 | 0.00 | 0.00 | 71 | 1010.9 |
| 20260505020931 | 77 | 184 | 13.0 | 19.0 | 0.00 | 0.00 | 0.00 | 72 | 1010.7 |
| 20260505020417 | 77 | 186 | 13.0 | 18.0 | 0.00 | 0.00 | 0.00 | 72 | 1010.7 |
| 20260505015922 | 77 | 2 | 13.0 | 17.0 | 0.00 | 0.00 | 0.00 | 72 | 1010.6 |
| 20260505015403 | 77 | 196 | 13.0 | 17.0 | 0.00 | 0.00 | 0.00 | 71 | 1010.7 |
| 20260505014906 | 77 | 2 | 13.0 | 17.0 | 0.00 | 0.00 | 0.00 | 71 | 1010.7 |
| 20260505014401 | 77 | 2 | 13.0 | 16.0 | 0.00 | 0.00 | 0.00 | 71 | 1010.7 |
| 20260505013846 | 77 | 2 | 12.0 | 16.0 | 0.00 | 0.00 | 0.00 | 71 | 1010.9 |
| 20260505013338 | 77 | 194 | 13.0 | 17.0 | 0.00 | 0.00 | 0.00 | 71 | 1010.7 |
| 20260505012822 | 77 | 188 | 13.0 | 17.0 | 0.00 | 0.00 | 0.00 | 70 | 1010.8 |
| 20260505012304 | 77 | 165 | 12.0 | 17.0 | 0.00 | 0.00 | 0.00 | 71 | 1010.6 |
| 20260505010523 | 77 | 190 | 12.0 | 16.0 | 0.00 | 0.00 | 0.00 | 70 | 1010.6 |
| 20260505010001 | 77 | 167 | 13.0 | 16.0 | 0.00 | 0.00 | 0.00 | 70 | 1010.4 |
| 20260505005447 | 77 | 2 | 12.0 | 16.0 | 0.00 | 0.00 | 0.00 | 69 | 1010.4 |
| 20260505004935 | 77 | 2 | 12.0 | 19.0 | 0.00 | 0.00 | 0.00 | 70 | 1010.3 |
| 20260505004434 | 77 | 191 | 12.0 | 19.0 | 0.00 | 0.00 | 0.00 | 69 | 1010.3 |
| 20260505003937 | 77 | 162 | 13.0 | 19.0 | 0.00 | 0.00 | 0.00 | 69 | 1010.3 |
| 20260505002747 | 77 | 2 | 12.0 | 16.0 | 0.00 | 0.00 | 0.00 | 69 | 1010.5 |
| 20260505002224 | 77 | 2 | 11.0 | 16.0 | 0.00 | 0.00 | 0.00 | 69 | 1010.6 |
| 20260505001712 | 77 | 2 | 11.0 | 16.0 | 0.00 | 0.00 | 0.00 | 69 | 1010.7 |
| 20260505001214 | 78 | 2 | 12.0 | 16.0 | 0.00 | 0.00 | 0.00 | 68 | 1010.7 |
| 20260505000712 | 78 | 2 | 12.0 | 16.0 | 0.00 | 0.00 | 0.00 | 68 | 1010.6 |
| 20260504235558 | 78 | 2 | 11.0 | 16.0 | 0.00 | 0.00 | 0.00 | 68 | 1010.6 |
| 20260504235051 | 78 | 181 | 11.0 | 16.0 | 0.00 | 0.00 | 0.00 | 68 | 1010.9 |
| 20260504234533 | 78 | 2 | 10.0 | 16.0 | 0.00 | 0.00 | 0.00 | 68 | 1011.0 |
| 20260504234038 | 78 | 2 | 11.0 | 16.0 | 0.00 | 0.00 | 0.00 | 67 | 1011.0 |
| 20260504233519 | 78 | 2 | 11.0 | 16.0 | 0.00 | 0.00 | 0.00 | 66 | 1011.0 |
| 20260504233006 | 78 | 186 | 10.0 | 15.0 | 0.00 | 0.00 | 0.00 | 66 | 1011.1 |
| 20260504232506 | 78 | 2 | 10.0 | 15.0 | 0.00 | 0.00 | 0.00 | 66 | 1011.2 |
| 20260504232013 | 78 | 2 | 10.0 | 15.0 | 0.00 | 0.00 | 0.00 | 68 | 1011.3 |
| 20260504231512 | 78 | 2 | 10.0 | 14.0 | 0.00 | 0.00 | 0.00 | 66 | 1011.3 |
| 20260504231018 | 78 | 2 | 10.0 | 14.0 | 0.00 | 0.00 | 0.00 | 67 | 1011.4 |
| 20260504225852 | 78 | 2 | 10.0 | 13.0 | 0.00 | 0.00 | 0.00 | 66 | 1011.3 |
| 20260504225351 | 78 | 180 | 9.0 | 13.0 | 0.00 | 0.00 | 0.00 | 66 | 1011.3 |
| 20260504224855 | 79 | 186 | 9.0 | 13.0 | 0.00 | 0.00 | 0.00 | 65 | 1011.5 |
| 20260504223734 | 79 | 181 | 9.0 | 13.0 | 0.00 | 0.00 | 0.00 | 65 | 1011.7 |
| 20260504223220 | 79 | 2 | 9.0 | 13.0 | 0.00 | 0.00 | 0.00 | 65 | 1011.7 |
| 20260504222727 | 79 | 2 | 9.0 | 12.0 | 0.00 | 0.00 | 0.00 | 64 | 1011.9 |
| 20260504222221 | 79 | 190 | 8.0 | 13.0 | 0.00 | 0.00 | 0.00 | 64 | 1011.8 |
| 20260504221058 | 79 | 2 | 10.0 | 13.0 | 0.00 | 0.00 | 0.00 | 63 | 1011.8 |
| 20260504215942 | 80 | 2 | 8.0 | 12.0 | 0.00 | 0.00 | 0.00 | 63 | 1011.9 |
| 20260504214809 | 80 | 183 | 9.0 | 13.0 | 0.00 | 0.00 | 0.00 | 62 | 1012.0 |
| 20260504214258 | 80 | 2 | 9.0 | 13.0 | 0.00 | 0.00 | 0.00 | 62 | 1012.0 |
| 20260504213805 | 80 | 2 | 10.0 | 13.0 | 0.00 | 0.00 | 0.00 | 62 | 1012.0 |
| 20260504213302 | 80 | 181 | 10.0 | 14.0 | 0.00 | 0.00 | 0.00 | 63 | 1012.2 |
| 20260504212743 | 80 | 197 | 9.0 | 14.0 | 0.00 | 0.00 | 0.00 | 62 | 1012.2 |
| 20260504212235 | 80 | 2 | 9.0 | 14.0 | 0.00 | 0.00 | 0.00 | 62 | 1012.5 |
| 20260504211719 | 80 | 2 | 9.0 | 14.0 | 0.00 | 0.00 | 0.00 | 62 | 1012.6 |
| 20260504211200 | 80 | 2 | 9.0 | 13.0 | 0.00 | 0.00 | 0.00 | 62 | 1012.5 |
| 20260504210648 | 79 | 2 | 9.0 | 13.0 | 0.00 | 0.00 | 0.00 | 61 | 1012.6 |
| 20260504210130 | 79 | 192 | 9.0 | 14.0 | 0.00 | 0.00 | 0.00 | 63 | 1012.5 |
| 20260504205608 | 79 | 2 | 9.0 | 14.0 | 0.00 | 0.00 | 0.00 | 63 | 1012.6 |
| 20260504205054 | 80 | 2 | 9.0 | 14.0 | 0.00 | 0.00 | 0.00 | 63 | 1012.6 |
| 20260504204559 | 80 | 2 | 8.0 | 14.0 | 0.00 | 0.00 | 0.00 | 62 | 1012.7 |
| 20260504204056 | 80 | 2 | 8.0 | 12.0 | 0.00 | 0.00 | 0.00 | 63 | 1012.9 |
| 20260504203558 | 80 | 2 | 8.0 | 12.0 | 0.00 | 0.00 | 0.00 | 61 | 1013.0 |
| 20260504201119 | 79 | 2 | 9.0 | 12.0 | 0.00 | 0.00 | 0.00 | 62 | 1013.1 |
| 20260504200623 | 79 | 2 | 9.0 | 12.0 | 0.00 | 0.00 | 0.00 | 62 | 1013.0 |
| 20260504200114 | 80 | 2 | 9.0 | 13.0 | 0.00 | 0.00 | 0.00 | 61 | 1013.2 |
| 20260504195619 | 80 | 193 | 9.0 | 13.0 | 0.00 | 0.00 | 0.00 | 61 | 1013.3 |
| 20260504195119 | 80 | 192 | 8.0 | 13.0 | 0.00 | 0.00 | 0.00 | 62 | 1013.4 |
| 20260504194624 | 80 | 166 | 9.0 | 13.0 | 0.00 | 0.00 | 0.00 | 61 | 1013.6 |
| 20260504194118 | 80 | 197 | 9.0 | 15.0 | 0.00 | 0.00 | 0.00 | 61 | 1013.6 |
| 20260504192350 | 80 | 2 | 10.0 | 13.0 | 0.00 | 0.00 | 0.00 | 62 | 1013.6 |
| 20260504191828 | 80 | 183 | 10.0 | 13.0 | 0.00 | 0.00 | 0.00 | 60 | 1013.7 |
| 20260504191333 | 80 | 2 | 9.0 | 13.0 | 0.00 | 0.00 | 0.00 | 60 | 1013.7 |
| 20260504185541 | 80 | 2 | 9.0 | 13.0 | 0.00 | 0.00 | 0.00 | 61 | 1013.8 |
| 20260504185025 | 80 | 2 | 10.0 | 13.0 | 0.00 | 0.00 | 0.00 | 62 | 1013.9 |
| 20260504184526 | 80 | 2 | 9.0 | 13.0 | 0.00 | 0.00 | 0.00 | 60 | 1013.9 |
| 20260504184032 | 81 | 188 | 9.0 | 14.0 | 0.00 | 0.00 | 0.00 | 60 | 1013.9 |
| 20260504183531 | 81 | 227 | 8.0 | 14.0 | 0.00 | 0.00 | 0.00 | 59 | 1014.1 |
| 20260504182404 | 80 | 2 | 9.0 | 14.0 | 0.00 | 0.00 | 0.00 | 60 | 1014.2 |
| 20260504181846 | 80 | 190 | 9.0 | 14.0 | 0.00 | 0.00 | 0.00 | 60 | 1014.1 |
| 20260504181328 | 80 | 2 | 9.0 | 14.0 | 0.00 | 0.00 | 0.00 | 60 | 1014.1 |
| 20260504180808 | 80 | 206 | 9.0 | 17.0 | 0.00 | 0.00 | 0.00 | 61 | 1014.3 |
| 20260504180308 | 80 | 2 | 10.0 | 17.0 | 0.00 | 0.00 | 0.00 | 60 | 1014.3 |
| 20260504175804 | 79 | 200 | 10.0 | 17.0 | 0.00 | 0.00 | 0.00 | 59 | 1014.2 |
| 20260504175301 | 79 | 188 | 10.0 | 17.0 | 0.00 | 0.00 | 0.00 | 59 | 1014.5 |
| 20260504173456 | 79 | 2 | 11.0 | 15.0 | 0.00 | 0.00 | 0.00 | 60 | 1014.8 |
| 20260504172946 | 79 | 2 | 10.0 | 14.0 | 0.00 | 0.00 | 0.00 | 60 | 1014.8 |
| 20260504171803 | 79 | 174 | 11.0 | 15.0 | 0.00 | 0.00 | 0.00 | 62 | 1014.8 |
| 20260504171254 | 79 | 177 | 11.0 | 15.0 | 0.00 | 0.00 | 0.00 | 61 | 1014.9 |
| 20260504170144 | 78 | 2 | 12.0 | 15.0 | 0.00 | 0.00 | 0.00 | 61 | 1015.2 |
| 20260504160413 | 78 | 179 | 11.0 | 17.0 | 0.00 | 0.00 | 0.00 | 60 | 1015.5 |
| 20260504140509 | 76 | 171 | 11.0 | 15.0 | 0.00 | 0.00 | 0.00 | 63 | 1015.4 |
| 20260504130702 | 75 | 192 | 11.0 | 14.0 | 0.00 | 0.00 | 0.00 | 63 | 1015.4 |
| 20260504130147 | 75 | 192 | 10.0 | 14.0 | 0.00 | 0.00 | 0.00 | 63 | 1015.3 |
| 20260504110717 | 73 | 193 | 10.0 | 15.0 | 0.00 | 0.00 | 0.00 | 59 | 1014.7 |
| 20260504110220 | 73 | 194 | 10.0 | 15.0 | 0.00 | 0.00 | 0.00 | 58 | 1014.9 |
| 20260504100134 | 73 | 174 | 8.0 | 15.0 | 0.00 | 0.00 | 0.00 | 53 | 1015.3 |
| 20260504081551 | 73 | 173 | 11.0 | 17.0 | 0.00 | 0.00 | 0.00 | 53 | 1015.7 |
| 20260504081036 | 73 | 202 | 10.0 | 17.0 | 0.00 | 0.00 | 0.00 | 54 | 1015.8 |
| 20260504080534 | 73 | 184 | 11.0 | 17.0 | 0.00 | 0.00 | 0.00 | 55 | 1015.7 |
| 20260504060111 | 73 | 204 | 9.0 | 16.0 | 0.00 | 0.00 | 0.00 | 54 | 1017.3 |
| 20260504045716 | 73 | 186 | 6.0 | 12.0 | 0.00 | 0.00 | 0.00 | 53 | 1017.8 |
| 20260504045223 | 73 | 129 | 6.0 | 12.0 | 0.00 | 0.00 | 0.00 | 53 | 1017.9 |
| 20260504044702 | 73 | 148 | 6.0 | 12.0 | 0.00 | 0.00 | 0.00 | 54 | 1017.9 |
| 20260504044141 | 73 | 163 | 6.0 | 11.0 | 0.00 | 0.00 | 0.00 | 52 | 1018.0 |
| 20260504041053 | 73 | 142 | 5.0 | 11.0 | 0.00 | 0.00 | 0.00 | 53 | 1017.8 |
| 20260504040531 | 73 | 139 | 5.0 | 11.0 | 0.00 | 0.00 | 0.00 | 52 | 1017.8 |
| 20260504040016 | 73 | 169 | 6.0 | 11.0 | 0.00 | 0.00 | 0.00 | 52 | 1018.0 |
| 20260504035521 | 73 | 127 | 5.0 | 11.0 | 0.00 | 0.00 | 0.00 | 53 | 1017.8 |